Starlink 11555

operational
NORAD ID: 62915 Int'l Des: 2025-027 Owner: SPXS Country: US Constellation: starlink
LEOCIRCULAR

Über Starlink 11555

Beschreibung wird geladen...

Live-Position

3D-Globus wird geladen...

Nächste Überflüge

Höhenverlauf

Altitude vs Time

uPlot chart will show altitude changes over time

Zweizeiliger Elementsatz

1 62915U 25027J 25303.69122139 .00116548 00000-0 90122-3 0 9997
2 62915 43.0001 51.5293 0002612 259.0525 101.0049 15.70781571 42741
Epoch: 30. Okt. 2025 • Age: 14 hours

Aktueller Status

Höhe 361.0 km
Geschwindigkeit 7.70 km/s
Subsatellitenpunkt 42.45°N, 14.5°W
Startdatum 8. Feb. 2025
Alter 0.7 years
Typ internet

Technische Details

Klassifizierung Payload
Masse 960.00 kg
Trockenmasse 910.00 kg
Gesamtmasse 960.00 kg
Länge 0.30 m
Durchmesser 4.10 m
Spannweite 29.00 m
Form Box + pan
Hersteller SPXS
Bus-Typ Starlink V2MD
Phasenstatus In Orbit
Besitzer/Staat SPXS/US

Große Konstellationen

Loading constellations...